sat.trackr.live / text

‹ back to catalog

HBTSS-SV2

NORAD 58955 · 2024-028A

PAYLOAD ACTIVE UNKNOWN

§ Identity

Operator
Country
US
Launch date
2024-02-14
Launch site
AFETR
Launch vehicle
Mass (kg)
RCS (m²)

External: N2YO · Heavens-Above · Gunter

§ Orbital elements

Epoch: 2026-09-22T03:48:30.595680Z

Period
105.07 min
Inclination
39.9922°
Eccentricity
0.0017790
Mean motion
13.70489066 rev/d
Perigee alt
984.7 km
Apogee alt
1,010.9 km
Semi-major
7,376.0 km
B*
1.5043e-4
RAAN
318.3737°
Arg perigee
74.8450°
Mean anomaly
285.4263°
Rev number
13,037

§ Raw data

HBTSS-SV21 58955U 24028A   26265.15868745  .00000056  00000+0  15043-3 0  99992 58955  39.9922 318.3737 0017790  74.8450 285.4263 13.70489066130370

JSON: /api/v1/satellites/58955 · /tle

For live sub-satellite position, see the globe view (requires WebGL).

§ Visibility from observer

Set your observer location to see the next 7 days of passes ≥ 10°. The values pass through the URL so the page stays shareable.

No JS? Fill the form by hand. The geolocation button needs JavaScript.